Regional Weather Roundup
Issued by NWS Kansas City/Pleasant Hill, MO

Home | Current Version | Previous Version | Text Only | Print | Product List | Glossary On
Versions: 1 2 3 4 5 6 7 8 9 10 11 12 13 14 15 16 17 18 19 20 21 22 23 24 25 26 27 28 29 30 31 32 33 34 35 36 37 38 39 40 41 42 43 44 45 46 47 48 49 50
000
ASUS43 KEAX 200204
RWREAX

WEATHER ROUNDUP FOR EASTERN KANSAS AND NORTHWEST MISSOURI
NATIONAL WEATHER SERVICE KANSAS CITY/PLEASANT HILL MO
900 PM CDT SUN OCT 19 2014

KSZ040-057-103>105-MOZ028-029-037-043-200300-
...KANSAS CITY METROPOLITAN AREA...

CITY           SKY/WX    TMP DP  RH WIND       PRES   REMARKS
K.C. INTL      PTCLDY    55  49  80 S9        29.99F
K.C. DOWNTOWN  PTCLDY    61  49  64 SW8       30.00S
LEES SUMMIT    PTCLDY    60  50  69 S8        30.01F
OLATHE - IXD   CLEAR     56  50  80 S8        30.02S
OLATHE - OJC   CLEAR     57  50  77 S6        30.01S
LAWRENCE       PTCLDY    55  47  74 S5        30.00F

$$

MOZ001>008-011>017-020>025-030>033-038>040-044>046-053-054-200300-
...NORTHERN AND CENTRAL MISSOURI...

CITY           SKY/WX    TMP DP  RH WIND       PRES   REMARKS
ST. JOSEPH     CLEAR     52  47  83 S3        29.99S
MOSBY          PTCLDY    59  48  67 CALM      30.00S
WHITEMAN AFB   PTCLDY    53  49  83 SW7       30.02F
CLINTON        CLEAR     57  52  82 S6        30.03F
SEDALIA        PTCLDY    58  49  72 SW7       30.03F
WARSAW         NOT AVBL
MARSHALL       PTCLDY    61  50  67 SW6       30.02S
CHILLICOTHE      N/A     51  48  89 CALM      30.00F
KIRKSVILLE     PTCLDY    54  44  69 SW7       29.99F

$$

MOZ041-047>049-056>058-063>065-088>090-097-200300-
...EASTERN AND SOUTHERN MISSOURI...

CITY           SKY/WX    TMP DP  RH WIND       PRES   REMARKS
ST. LOUIS INTL NOT AVBL
SPIRIT OF STL  FAIR      50  47  89 CALM      30.03F
COLUMBIA       CLOUDY    56  45  66 S8        30.02F
JEFFERSON CITY PTCLDY    59  46  62 CALM      30.03F
ROLLA          CLOUDY    53  45  74 S7        30.04F
LEBANON        PTCLDY    54  46  76 S5        30.07F
OSAGE BEACH    CLEAR     55  45  67 S8        30.04F
SPRINGFIELD    PTCLDY    55  49  80 S8        30.07S
BRANSON        PTCLDY    54  48  82 SE6       30.09F
JOPLIN         PTCLDY    57  52  83 S6        30.06F
WEST PLAINS    PTCLDY    50  45  83 S3        30.10F

$$

IAZ060-094-KSZ022-034>040-054-083-096-NEZ052-066-093-200300-
...KANSAS...SOUTHEAST NEBRASKA AND IOWA...

CITY           SKY/WX    TMP DP  RH WIND       PRES   REMARKS
TOPEKA         CLEAR     62  49  62 S8        30.00S
MANHATTAN      CLEAR     55  49  80 CALM      30.00S
EMPORIA        PTCLDY    59  51  75 S10       30.02
CHANUTE        CLOUDY    61  54  77 S6        30.04F
WICHITA        PTCLDY    64  54  69 SE9       30.00F
OMAHA          CLEAR     60  48  64 SE5       29.95R
LINCOLN        CLEAR     62  48  60 W3        29.98R
FALLS CITY     CLEAR     57  48  72 SW6       29.97F
LAMONI         CLEAR     53  45  74 SW9       29.96S
DES MOINES     CLEAR     58  47  66 SW9       29.92F

$$




USA.gov is the U.S. government's official web portal to all federal, state and local government web resources and services.